This is the latest recevied weather packets stored in our database for station/object K0NV. If no packets are shown the sender has not sent any weather packets the latest 10 day(s).
| Time | Temp. | Humidity | Pressure | Rain* | Wind** | Luminosity | Snow |
|---|---|---|---|---|---|---|---|
| 1777773883 | 11.11° C | 68% | 1020.8 hPa | 0 mm | - | 0 W/m² | - |
| 1777773580 | 11.11° C | 68% | 1020.7 hPa | 0 mm | - | 0 W/m² | - |
| 1777773277 | 11.11° C | 67% | 1020.6 hPa | 0 mm | - | 0 W/m² | - |
| 1777772972 | 11.11° C | 67% | 1020.4 hPa | 0 mm | - | 0 W/m² | - |
| 1777772670 | 11.67° C | 67% | 1020.5 hPa | 0 mm | - | 0 W/m² | - |
| 1777772368 | 11.67° C | 66% | 1020.7 hPa | 0 mm | - | 0 W/m² | - |
| 1777772065 | 11.67° C | 66% | 1020.5 hPa | 0 mm | - | 0 W/m² | - |
| 1777771762 | 12.22° C | 65% | 1020.7 hPa | 0 mm | - | 0 W/m² | - |
| 1777771460 | 12.78° C | 62% | 1020.5 hPa | 0 mm | - | 0 W/m² | - |
| 1777771156 | 12.78° C | 61% | 1020.6 hPa | 0 mm | - | 0 W/m² | - |
| 1777770853 | 12.78° C | 61% | 1020.4 hPa | 0 mm | - | 0 W/m² | - |
| 1777770550 | 13.33° C | 60% | 1020.3 hPa | 0 mm | - | 0 W/m² | - |
| 1777770247 | 13.89° C | 57% | 1020.4 hPa | 0 mm | - | 1 W/m² | - |
| 1777769943 | 13.89° C | 56% | 1020.4 hPa | 0 mm | - | 3 W/m² | - |
| 1777769641 | 14.44° C | 56% | 1020.2 hPa | 0 mm | - | 6 W/m² | - |
| 1777769337 | 14.44° C | 53% | 1020.4 hPa | 0 mm | - | 8 W/m² | - |
| 1777769034 | 14.44° C | 54% | 1020.5 hPa | 0 mm | - | 12 W/m² | - |
| 1777768732 | 15° C | 54% | 1020.4 hPa | 0 mm | - | 14 W/m² | - |
| 1777768428 | 15° C | 54% | 1020.4 hPa | 0 mm | - | 17 W/m² | - |
| 1777768125 | 15° C | 52% | 1020.2 hPa | 0 mm | - | 20 W/m² | - |
| 1777767823 | 15.56° C | 51% | 1020.3 hPa | 0 mm | - | 23 W/m² | - |
| 1777767519 | 15.56° C | 49% | 1020.2 hPa | 0 mm | - | 25 W/m² | - |
| 1777767215 | 15.56° C | 48% | 1020.3 hPa | 0 mm | - | 27 W/m² | - |
| 1777766913 | 15.56° C | 48% | 1020 hPa | 0 mm | - | 30 W/m² | - |
| 1777766610 | 16.11° C | 46% | 1020.5 hPa | 0 mm | - | 41 W/m² | - |
* Rain latest hour (hover to see other rain measurements)
** Current wind speed in m/s (hover to see current wind gust speed)